Hourly Data Report for October 03, 2017

All times are specified in Local Standard Time (LST). Add 1 hour to adjust for Daylight Saving Time where and when it is observed.

GIMLI CLIMATE
MANITOBA

50°38'00.000" N
97°03'00.000" W
230.10 m
5031042
71748
PGH

Download Data

Hourly Data (October 2017)
Hourly Data Report for October 3, 2017
Temp Definition
°C
Dew Point Temp Definition
°C
Rel Hum Definition
%
Wind Dir Definition
10's deg

Wind Spd Definition
km/h
Visibility Definition
km
Stn Press Definition
kPa
Hmdx Definition


Wind Chill Definition


Weather Definition


TIME
00:00 4.4 3.5 94 17 5   98.54     LegendNANA
01:00 4.0 3.1 94 17 6   98.50     LegendNANA
02:00 2.6 1.8 94 23 4   98.50     LegendNANA
03:00 2.0 0.9 92 18 5   98.53     LegendNANA
04:00 1.0 0.3 95 22 1   98.62     LegendNANA
05:00 0.8 0.1 95 28 3   98.64     LegendNANA
06:00 0.8 0.1 95 25 6   98.69     LegendNANA
07:00 3.0 2.2 95 32 3   98.75     LegendNANA
08:00 4.8 3.7 93 23 2   98.79     LegendNANA
09:00 6.3 4.8 90   0   98.85     LegendNANA
10:00 8.5 6.3 87 26 2   98.90     LegendNANA
11:00 9.3 7.1 86 14 3   98.93     LegendNANA
12:00 11.6 5.0 64 14 7   98.95     LegendNANA
13:00
14:00 10.8 6.2 73 21 10   99.01     LegendNANA
15:00 11.1 3.2 58 24 10   99.04     LegendNANA
16:00 11.1 3.4 59 21 10   99.08     LegendNANA
17:00 10.5 4.3 66 18 13   99.10     LegendNANA
18:00 8.5 4.5 76 4 3   99.17     LegendNANA
19:00 7.7 5.0 83 6 3   99.19     LegendNANA
20:00 5.7 3.4 85 14 3   99.21     LegendNANA
21:00 4.3 3.3 93 21 4   99.20     LegendNANA
22:00 3.2 2.4 94 23 5   99.18     LegendNANA
23:00 4.0 2.7 91 22 8   99.18     LegendNANA

Notes on Data Quality.

Legend

  • E = Estimated
  • M = Missing
  • NA = Not Available
  • ‡ = Partner data that is not subject to review by the National Climate Archives
Date modified: